Погода в Ширазе

Иран     29°37′03″N   52°30′17″E
темп.,
°C
ветер,
м/с
пор.,
м/с
влажн.,
%
обл.,
%
осадки,
мм/ч
давл.,
гПа
погр.,
м
15 мая, сб
сб1501:30+18с22290 0.0 101115
04:30+16с12430 0.0 101111
07:30+17св11420 0.0 101275
10:30+22св12300 0.0 1011862
13:30+27зсз2611100 0.0 10074474
16:30+28з971015 0.0 10054134
19:30+24з710167 0.0 1007328
22:30+20ссв222519 0.0 101011
16 мая, вс
вс1601:30+18ссв22330 0.0 101011
04:30+15с22420 0.0 101112
07:30+17с11400 0.0 101378
10:30+22всв22280 0.0 10121020
13:30+26всв36183 0.0 10093113
16:30+28зюз851022 0.0 10073685
19:30+24юз45131 0.0 100878
22:30+20з22210 0.0 101116
17 мая, пн
пн1701:30+19зсз33240 0.0 101116
04:30+16ссз22260 0.0 101211
07:30+19ссз12240 0.0 101453
10:30+24всв12180 0.0 1013951
13:30+28в23120 0.0 10103298
16:30+29ююз12105 0.0 10084184
19:30+26з34141 0.0 100962
22:30+22зюз32180 0.0 101217
18 мая, вт
вт1801:30+20зсз33210 0.0 101224
04:30+19ссз33200 0.0 101214
07:30+20ссз22220 0.0 101462
10:30+26всв22180 0.0 10121229
13:30+29в13123 0.0 10093931
16:30+29сз1391498 0.0 10082073
19:30+26зсз34175 0.0 100976
22:30+22сз22170 0.0 101116
19 мая, ср
ср1901:30+21сз23180 0.0 101115
04:30+19ссз33210 0.0 101118
07:30+21ссз22240 0.0 101345
10:30+27всв11150 0.0 1011979
13:30+30всв24100 0.0 10073703
16:30+32ссз33815 0.0 10054836
19:30+28зсз610114 0.0 1006252
22:30+24з33160 0.0 100821